Altamonte Springs, FL (32701)

11:07 AM EST on February 07, 2016 (GMT -0500)
Sanlando | | Change Station
CLOSE
Current Station
Personal Weather Station
Location: Altamonte Springs, FL
Elevation: 112 ft
Nearby Weather Stations
Active Advisory: Lake Wind Advisory

Elev 112 ft 28.68 °N, 81.37 °W | Updated 1 second ago

Overcast
Overcast
46.6 °F
Feels Like 45 °F
N
3.6
Wind Variable Wind from NNW
Gusts 4.9 mph

Today
High -- | Low -- °F
--% Chance of Precip.
Yesterday
High -- | Low -- °F
Precip. -- in
Pressure 30.09 in
Visibility 10.0 miles
Clouds Overcast 1200 ft
Windchill 45 °F
Dew Point 41 °F
Humidity 81%
Rainfall 0.00 in
Snow Depth Not available.
7:10 AM 6:09 PM
Waning Crescent, 1% visible
METAR KORL 071553Z 29016KT 10SM OVC012 09/04 A3007 RMK AO2 SLP187 T00890044
Pressure 30.09 in
Visibility 10.0 miles
Clouds Overcast 1200 ft
Windchill 45 °F
Dew Point 41 °F
Humidity 81%
Rainfall 0.00 in
Snow Depth Not available.
7:10 AM 6:09 PM
Waning Crescent, 1% visible
METAR KORL 071553Z 29016KT 10SM OVC012 09/04 A3007 RMK AO2 SLP187 T00890044

10-Day Weather Forecast

Almanac

Astronomy

Feb. 07, 2016 Rise Set
Actual Time
Civil Twilight
Nautical Twilight
Astronomical Twilight
Moon
Length of Visible Light
Length of Day
Tomorrow will be .
, % of the Moon is Illuminated

Today's Extremes

State Highs State Lows

Community

WunderPhotos

Upload Photos

1,891,218 photos uploaded!

WunderBlog® & News

Nearby

Air Quality

  Air Quality AQ Index Pollutant
Not available.

Snow Depth

Station Depth Elevation

Earthquake Activity

City Distance Mag. Time & Date
Minimum magnitude displayed is 2.5.

Coastal Water Temperatures

Place Temperature

Stations

Nearby Weather Stations

Station Location Temp. Windchill Dew Point Humidity Wind Precip. Elev Updated Type
                   

Watches & Warnings

Lake Wind Advisory
Issued: 3:47 AM EST Feb. 7, 2016 – National Weather Service

... Lake Wind Advisory in effect until 6 PM EST this evening...

The National Weather Service in Melbourne has issued a lake Wind
Advisory... which is in effect until 6 PM EST this evening.

* Winds... northwest winds around 20 mph today with gusts up to 30
to 35 mph.

* Impacts... choppy conditions on Open Lakes and other larger
bodies of water will make operation of small boats potentially
hazardous.

Precautionary/preparedness actions...

A lake Wind Advisory indicates that winds will cause rough chop
on area lakes. Small boats will be especially prone to capsizing.



Weitlich